Location: Boiro
(42.6475°N, 8.8834°W)
Time: 18:17:33
(UTC+01:00)

Tiros 1 - Pass Details

Date: 06 December 2021
Orbit: 630 x 663 km, 48.4° (Epoch: 20 January)

Event Time Altitude Azimuth Distance (km) Brightness Sun altitude
Rises 02:59:18 0° 281° (WNW) 2,966 - -62.1°
Reaches altitude 10° 03:03:15 10° 249° (WSW) 2,058 - -61.5°
Maximum altitude 03:04:47 11° 230° (SW) 1,962 - -61.3°
Drops below altitude 10° 03:06:19 10° 211° (SSW) 2,060 - -61.1°
Sets 03:10:18 0° 178° (S) 2,972 - -60.5°
